Starlink 32007

operational
NORAD ID: 60094 Int'l Des: 2024-117 Owner: SPXS Country: US Constellation: starlink
LEOCIRCULAR

About Starlink 32007

Description loading...

Live Position

Loading 3D Globe...

Upcoming Passes

Altitude History

Altitude vs Time

uPlot chart will show altitude changes over time

Two-Line Element Set

1 60094U 24117D 26102.64641573 -.00000001 00000-0 12099-4 0 9998
2 60094 53.1604 239.5249 0001167 80.0538 280.0595 15.30192790102080
Epoch: Apr 12, 2026 • Age: 14 hours

Current Status

Altitude 494.6 km
Velocity 7.62 km/s
Sub-Earth Point -53.28°S, 130.2°W
Launch Date Jun 23, 2024
Age 1.8 years
Type internet

Technical Details

Classification Payload
Mass 730.00 kg
Dry Mass 700.00 kg
Total Mass 730.00 kg
Length 0.30 m
Diameter 4.10 m
Span 29.00 m
Shape Box + pan
Manufacturer SPXS
Bus Type Starlink V2M
Phase Status In Orbit
Owner/State SPXS/US

Large Constellations

Loading constellations...